Wind_Speed
24 23 20 20 16 17 19 23 25 24 21 18 15 16 12 9 11 14 17 23 17 16 17 16 13 12 13 14 14 12 10 9 7 6 6 4 4 3 1 1 3 4 6 8 10 12 12 15 15
27 22 24 20 20 16 23 25 24 23 19 17 21 8 13 16 14 19 23 14 16 14 18 18 14 12 13 13 14 13 11 9 7 5 4 3 4 5 4 2 2 3 5 8 11 14 12 13 14
29 23 24 22 21 18 18 29 24 28 25 15 24 25 17 8 14 19 18 16 22 12 17 17 15 14 12 12 12 11 11 9 6 5 4 4 5 7 6 4 2 3 6 9 13 17 14 11 12
24 24 25 24 24 21 19 23 29 33 34 27 20 22 19 8 8 8 4 6 13 17 17 16 13 11 13 12 13 12 11 10 8 7 5 5 5 7 7 5 4 4 7 11 15 18 16 12 11
24 25 26 24 23 24 25 24 31 36 38 35 19 12 13 15 10 7 2 7 25 19 14 14 12 9 11 12 14 13 13 12 11 9 7 6 7 8 8 6 5 6 8 14 18 20 17 11 11
26 26 26 22 22 25 28 30 32 34 34 40 37 24 16 13 11 10 13 9 26 28 15 11 12 9 9 10 14 14 14 15 13 12 10 9 9 9 10 7 6 7 9 14 19 21 17 10 10
25 24 24 23 23 25 26 32 36 38 35 37 36 35 19 14 12 10 10 15 16 26 20 14 10 9 7 11 12 14 14 15 15 14 12 11 11 10 10 10 7 7 9 14 19 21 14 7 9
16 16 16 16 19 22 28 33 35 37 38 37 38 34 24 23 22 18 14 17 18 19 32 14 13 10 10 10 12 13 14 15 17 15 14 14 12 11 11 12 9 8 9 13 18 22 15 7 9
13 10 10 14 18 21 24 29 35 36 37 37 37 32 31 22 26 23 18 20 19 22 19 22 18 15 16 13 13 12 15 15 17 17 17 15 15 13 12 13 11 8 9 13 17 21 18 10 8
18 12 14 18 21 24 22 26 32 36 37 37 37 35 30 23 26 23 20 20 22 17 24 21 23 20 19 19 16 13 12 13 16 17 17 16 15 15 13 14 14 9 10 13 15 17 20 15 10
20 16 21 23 23 25 24 27 31 34 34 37 41 38 33 29 26 20 23 25 29 28 30 28 27 24 22 20 18 17 14 13 15 16 17 16 16 16 15 16 15 10 8 13 14 15 17 17 12
27 25 23 24 24 25 26 29 31 32 32 31 37 40 35 29 21 17 22 23 26 30 30 31 29 26 26 23 20 20 18 15 15 14 16 15 16 16 16 17 16 11 7 11 14 14 15 17 14
32 29 27 27 29 29 29 32 35 34 33 30 29 30 30 24 19 15 18 20 19 24 33 38 35 29 27 25 22 19 19 19 16 15 14 14 16 17 17 18 16 12 9 10 13 13 15 15 15
38 36 35 34 34 35 36 35 36 38 37 35 35 34 31 26 23 18 15 14 18 20 26 33 38 38 30 27 25 23 19 22 21 17 15 14 16 17 18 19 18 14 10 11 13 14 14 16 15
42 43 41 42 41 41 42 41 40 39 42 42 40 39 36 31 26 22 22 20 18 20 21 19 20 35 32 29 27 24 23 22 22 21 17 16 16 16 19 20 19 17 13 12 13 14 14 16 17
43 45 47 48 47 46 45 45 46 48 47 46 45 44 38 34 31 27 28 26 23 23 21 22 22 26 25 30 26 26 25 24 22 23 21 20 17 16 19 21 20 19 15 13 13 14 14 15 16
43 45 46 47 48 48 48 49 49 50 52 52 52 49 44 40 37 31 30 28 28 26 26 25 24 26 27 30 32 32 29 29 25 22 23 23 20 18 20 21 22 21 19 15 14 14 15 15 16
48 49 50 51 49 49 49 49 50 55 55 55 56 55 53 47 42 36 34 34 34 31 30 29 29 31 30 33 36 36 34 29 28 28 26 26 23 22 22 23 23 23 23 21 19 15 14 16 18
54 55 56 58 58 54 53 54 58 56 56 59 60 58 57 55 50 44 42 38 37 35 34 32 33 30 32 30 29 34 32 33 38 36 32 30 27 24 22 25 25 25 25 24 23 20 16 16 17
57 60 62 64 64 65 61 61 66 62 58 60 62 62 60 59 55 49 44 42 39 38 37 38 34 36 35 35 35 32 34 37 35 36 39 35 30 29 27 25 23 24 24 25 26 24 24 21 19
50 53 57 62 65 69 71 69 70 69 64 63 63 63 63 61 60 55 49 44 42 40 41 40 35 39 39 38 39 34 34 31 26 25 27 30 41 38 33 28 27 25 25 27 28 27 25 26 24
32 35 37 41 53 57 65 71 69 74 71 68 66 66 63 62 64 62 56 47 43 42 44 41 40 44 43 42 38 36 33 30 29 32 32 28 30 42 39 35 33 32 32 28 29 28 27 27 28
31 33 36 37 37 43 46 56 68 69 72 71 69 68 64 62 64 66 62 59 52 49 49 48 47 47 44 45 41 33 32 33 32 33 33 29 25 22 27 40 39 35 33 33 34 35 37 34 34
36 36 38 37 38 43 43 49 58 60 65 72 70 71 66 63 65 66 65 62 58 55 53 51 53 53 50 45 40 39 37 37 38 38 34 31 27 19 17 19 24 35 33 35 35 32 33 38 38
34 34 35 37 37 36 37 42 46 47 49 64 71 65 68 65 67 67 67 64 60 57 55 54 56 57 54 50 47 44 43 41 40 40 38 35 33 26 23 25 24 23 22 27 24 27 34 39 41
30 29 27 25 26 24 29 37 37 35 38 50 65 63 61 66 67 66 68 68 65 59 57 57 57 59 55 51 49 46 45 45 45 42 40 37 34 31 30 30 27 24 25 21 20 20 21 18 30
22 20 18 18 18 21 24 29 33 31 33 34 57 61 57 65 66 64 67 68 64 64 61 60 59 58 53 55 53 50 48 48 46 45 42 39 37 37 34 31 30 30 26 28 27 25 20 21 21
9 10 12 11 15 16 19 21 22 24 33 32 40 48 59 62 63 61 63 64 62 59 60 58 62 57 55 52 52 52 50 47 46 44 43 41 37 38 37 33 31 31 29 30 28 24 24 23 17
5 2 4 7 9 16 23 29 28 25 29 57 30 44 60 59 61 61 61 58 58 59 59 57 51 52 56 56 52 51 48 47 46 44 43 40 38 39 37 35 33 30 31 30 29 27 27 23 22
7 5 11 11 13 17 22 25 22 14 29 47 33 41 47 59 60 58 58 61 57 57 55 55 56 57 53 51 52 52 51 48 45 45 44 46 44 38 40 40 36 33 34 33 31 33 35 32 26
Wind_Direction
244 236 222 223 230 200 200 217 229 233 238 247 253 245 246 251 251 277 271 242 226 213 217 199 184 188 181 169 172 175 172 171 175 182 196 231 267 260 273 102 89 63 49 21 356 350 351 2 4
238 258 222 216 226 208 207 221 222 237 249 231 240 228 258 272 284 289 285 272 194 216 220 205 183 192 195 179 178 175 173 180 177 193 210 239 281 298 311 298 59 39 25 353 344 341 343 352 351
247 257 234 221 221 217 234 226 237 236 235 243 260 249 249 288 291 295 281 308 193 209 207 209 185 188 203 194 195 183 186 180 182 207 218 252 280 298 305 294 316 356 350 343 342 340 334 333 342
245 245 238 242 226 232 225 239 248 246 234 231 250 242 249 242 306 292 274 305 177 210 213 198 190 193 198 205 209 198 204 194 191 211 228 240 264 282 289 286 298 322 331 339 337 336 328 318 334
243 241 239 233 230 231 235 235 244 245 238 241 247 259 248 256 277 40 75 239 182 177 182 190 176 192 202 205 219 211 213 209 202 213 226 242 258 276 279 274 283 307 329 334 335 331 327 313 327
246 246 244 238 235 233 234 236 242 254 249 236 246 262 276 262 277 303 325 306 197 191 170 167 172 185 196 204 223 223 221 220 213 218 223 236 246 262 272 264 268 301 324 337 341 334 322 313 326
247 246 245 242 243 243 239 235 241 247 249 258 259 267 262 269 262 288 296 291 278 197 177 174 182 196 192 210 217 224 226 231 229 223 225 233 241 252 264 259 251 288 321 335 345 343 324 321 321
231 239 241 240 239 244 242 236 235 242 249 251 261 263 267 250 258 262 281 258 272 252 197 211 215 198 219 223 220 222 228 234 237 234 233 234 236 241 254 253 248 275 310 332 344 353 339 322 323
234 220 223 224 230 237 236 230 232 237 244 251 254 255 262 258 262 275 274 263 264 249 204 204 214 220 227 234 234 224 231 232 240 240 238 233 236 236 246 248 248 267 306 328 339 353 352 323 321
251 231 223 230 234 239 238 229 233 236 239 243 246 253 257 259 264 273 259 251 234 246 222 218 220 215 220 225 233 229 235 236 242 242 242 239 234 236 238 242 248 264 301 320 333 348 354 343 325
259 246 240 237 241 253 252 234 235 241 250 245 243 245 248 254 262 261 252 234 223 220 216 220 222 225 222 227 230 231 234 233 244 244 244 241 233 235 237 236 243 254 292 311 325 339 351 349 329
255 246 241 245 245 246 249 255 254 254 250 258 256 250 251 258 264 267 251 247 228 231 230 228 224 220 222 224 221 223 226 231 236 242 245 239 237 237 238 239 241 251 273 300 319 329 343 352 339
253 248 243 237 243 242 239 246 258 262 263 261 266 268 261 250 248 244 247 247 244 240 237 227 225 221 221 225 228 225 223 228 233 238 241 242 241 240 239 240 242 251 266 290 309 321 331 336 343
254 252 249 243 239 240 239 236 246 256 260 260 260 261 260 254 243 244 240 244 241 245 250 231 224 214 217 221 229 232 229 227 228 232 234 236 242 240 239 239 241 248 261 283 300 313 324 334 342
255 255 253 252 247 243 246 243 238 243 250 255 255 254 250 250 241 239 241 235 237 242 241 237 234 224 205 218 225 230 230 231 228 230 231 233 236 238 237 238 239 244 253 274 293 308 323 327 336
256 254 254 255 253 251 247 246 242 243 236 240 248 248 248 243 241 235 235 243 241 235 241 238 228 227 224 219 228 231 234 232 232 233 233 234 234 234 237 239 239 245 251 262 281 301 312 320 327
258 257 255 252 253 252 249 249 242 243 243 239 240 242 242 242 239 235 236 238 242 240 237 235 232 232 228 229 231 232 231 232 231 232 234 238 236 231 237 238 240 243 247 251 266 282 299 314 317
258 256 255 254 250 248 249 247 245 238 241 243 241 241 241 237 238 236 234 234 236 235 237 234 230 231 231 231 231 233 234 237 236 234 234 233 236 235 230 236 237 241 246 250 253 264 286 301 307
259 257 256 255 253 247 244 246 245 239 238 240 242 241 240 240 234 235 236 232 233 235 236 236 234 233 233 237 239 236 238 238 234 232 232 234 235 239 243 241 239 239 243 252 258 263 266 279 290
259 256 253 252 250 249 243 241 243 242 235 236 239 241 241 242 240 231 234 236 230 229 233 234 232 231 229 227 235 235 232 237 242 241 236 238 240 239 241 245 248 249 250 250 256 262 267 266 274
264 259 255 252 248 248 245 240 239 239 237 233 234 238 240 240 241 235 229 231 234 230 232 234 229 234 232 230 225 227 232 239 245 251 250 249 239 243 243 244 250 251 253 254 255 257 262 271 272
285 279 271 265 257 252 248 243 239 236 236 232 232 233 236 236 239 240 230 224 230 228 230 233 230 233 234 235 216 221 225 234 239 245 255 254 233 241 246 248 248 255 254 253 258 260 262 265 270
274 272 273 278 275 271 266 258 245 236 232 233 229 230 231 233 235 238 237 232 224 225 226 224 227 234 238 235 217 220 227 235 238 244 250 252 243 244 242 245 246 248 254 257 255 262 264 264 263
272 269 270 271 275 279 283 269 257 249 231 226 227 227 226 228 232 235 238 235 229 225 227 226 228 229 230 232 229 237 230 232 235 240 245 246 250 267 268 265 255 244 245 250 258 265 269 267 267
274 271 273 276 278 285 269 260 263 257 244 224 222 224 224 220 226 229 234 236 231 227 225 227 229 232 233 232 234 233 236 233 235 239 242 244 249 244 245 257 257 251 247 253 259 274 270 263 262
275 274 273 281 284 273 260 260 264 261 242 220 217 217 223 216 222 223 229 234 232 228 227 226 227 231 233 235 235 236 236 239 240 236 241 244 247 250 248 249 252 245 239 261 254 278 282 294 261
280 275 284 296 283 265 259 268 267 268 224 214 211 212 214 213 217 221 226 233 234 229 229 229 229 228 228 232 232 233 237 240 243 247 242 240 243 248 248 250 248 250 250 248 256 264 270 280 289
282 286 302 289 287 276 272 265 273 287 225 197 203 218 209 209 212 215 224 230 233 231 224 227 228 231 230 231 233 234 236 239 243 250 254 256 244 245 251 249 246 249 252 251 257 260 272 287 286
92 0 321 300 288 292 288 291 293 284 223 210 212 198 209 207 208 212 220 226 232 235 230 226 226 228 231 233 234 235 236 240 242 244 249 256 257 253 246 250 247 247 248 252 252 254 262 271 273
19 5 359 330 306 298 300 303 304 267 219 211 207 188 190 206 205 210 220 227 234 237 241 238 237 239 235 234 234 235 237 239 241 244 246 249 246 241 250 249 249 244 244 246 250 249 253 258 258
Height
5844 5846 5847 5850 5854 5854 5854 5852 5851 5851 5852 5851 5853 5851 5851 5855 5856 5857 5857 5859 5860 5860 5861 5861 5861 5864 5867 5867 5869 5873 5875 5878 5880 5882 5883 5886 5886 5885 5885 5886 5884 5881 5880 5879 5879 5877 5875 5873 5872
5841 5843 5844 5846 5850 5852 5852 5850 5850 5848 5850 5851 5849 5849 5850 5851 5854 5854 5855 5858 5858 5860 5861 5861 5861 5863 5867 5868 5870 5873 5875 5878 5879 5881 5883 5885 5885 5886 5885 5887 5885 5883 5881 5880 5879 5877 5875 5875 5873
5837 5839 5841 5843 5846 5849 5851 5850 5846 5845 5847 5850 5849 5848 5851 5852 5852 5851 5853 5857 5856 5859 5859 5861 5860 5863 5867 5868 5871 5872 5875 5876 5878 5881 5882 5884 5885 5886 5886 5888 5887 5884 5882 5881 5879 5877 5876 5875 5874
5832 5834 5838 5839 5844 5845 5847 5846 5842 5841 5842 5844 5848 5848 5850 5852 5854 5851 5852 5854 5856 5861 5860 5860 5861 5863 5865 5867 5871 5871 5874 5876 5877 5879 5881 5883 5885 5886 5887 5889 5888 5885 5882 5881 5880 5878 5876 5875 5874
5827 5829 5831 5835 5840 5842 5842 5843 5840 5840 5843 5843 5846 5847 5849 5850 5851 5852 5853 5854 5853 5856 5859 5860 5860 5864 5864 5866 5870 5871 5874 5875 5875 5878 5880 5883 5884 5885 5887 5888 5888 5886 5883 5881 5880 5878 5876 5875 5874
5822 5825 5827 5831 5834 5835 5837 5837 5839 5840 5840 5841 5844 5846 5848 5849 5850 5851 5852 5852 5853 5854 5855 5857 5859 5863 5865 5865 5869 5871 5873 5875 5874 5876 5879 5881 5883 5884 5887 5887 5888 5886 5884 5881 5880 5878 5875 5874 5874
5818 5820 5823 5826 5828 5830 5831 5832 5833 5834 5836 5837 5840 5842 5847 5849 5848 5850 5850 5852 5852 5855 5853 5857 5860 5862 5862 5867 5868 5869 5871 5875 5874 5874 5877 5879 5881 5883 5886 5888 5887 5886 5884 5881 5880 5878 5875 5875 5874
5814 5817 5820 5822 5822 5823 5825 5827 5828 5830 5831 5833 5834 5837 5842 5846 5845 5847 5848 5850 5852 5852 5854 5855 5858 5859 5862 5865 5867 5868 5870 5872 5874 5873 5875 5878 5880 5881 5884 5887 5886 5885 5884 5882 5880 5878 5876 5874 5874
5811 5815 5817 5817 5818 5818 5818 5820 5822 5824 5827 5830 5831 5834 5835 5838 5839 5841 5844 5846 5848 5850 5852 5852 5855 5855 5860 5863 5866 5866 5869 5870 5872 5872 5874 5876 5878 5879 5883 5886 5886 5883 5883 5881 5880 5878 5876 5875 5874
5809 5813 5813 5812 5812 5811 5813 5815 5817 5820 5822 5824 5827 5829 5830 5833 5835 5837 5840 5842 5845 5847 5849 5852 5852 5854 5858 5861 5863 5864 5866 5867 5870 5870 5872 5875 5876 5878 5881 5884 5884 5882 5882 5880 5880 5878 5876 5874 5874
5807 5810 5808 5808 5809 5809 5811 5813 5814 5816 5817 5820 5822 5824 5825 5828 5830 5834 5835 5836 5838 5841 5845 5847 5850 5852 5854 5857 5859 5862 5864 5865 5867 5868 5870 5873 5874 5875 5878 5881 5882 5880 5881 5880 5880 5878 5877 5875 5874
5800 5802 5804 5805 5806 5807 5809 5809 5811 5814 5817 5817 5818 5819 5822 5825 5827 5828 5830 5833 5834 5837 5841 5843 5845 5847 5851 5854 5856 5858 5861 5862 5863 5866 5868 5869 5872 5873 5876 5878 5879 5879 5880 5879 5878 5878 5877 5876 5874
5792 5795 5797 5798 5799 5803 5806 5807 5806 5809 5812 5815 5815 5817 5818 5821 5823 5823 5824 5827 5831 5834 5833 5834 5840 5843 5846 5849 5852 5854 5856 5858 5860 5863 5865 5866 5869 5871 5873 5875 5877 5877 5877 5878 5878 5878 5877 5876 5874
5784 5787 5787 5790 5792 5793 5796 5800 5800 5802 5804 5808 5810 5812 5814 5817 5821 5821 5822 5823 5825 5826 5828 5828 5832 5836 5840 5844 5847 5851 5852 5854 5856 5859 5861 5863 5866 5867 5870 5872 5874 5874 5875 5875 5875 5876 5875 5875 5873
5776 5777 5778 5779 5782 5784 5787 5792 5793 5795 5796 5798 5802 5804 5808 5811 5815 5820 5820 5821 5822 5823 5824 5826 5826 5829 5834 5839 5842 5847 5849 5851 5853 5855 5857 5860 5862 5864 5867 5868 5870 5872 5873 5873 5873 5873 5873 5873 5872
5765 5766 5767 5767 5771 5776 5781 5784 5783 5783 5783 5784 5787 5791 5796 5801 5805 5810 5813 5815 5817 5819 5821 5823 5824 5827 5830 5834 5838 5843 5846 5848 5849 5851 5853 5857 5859 5860 5863 5864 5866 5867 5870 5871 5871 5871 5871 5871 5871
5753 5753 5755 5756 5759 5763 5769 5770 5774 5772 5771 5774 5774 5777 5783 5789 5794 5801 5805 5808 5811 5813 5816 5818 5820 5823 5825 5829 5834 5838 5840 5843 5845 5847 5850 5854 5855 5857 5859 5859 5861 5863 5865 5868 5870 5871 5870 5869 5869
5740 5741 5741 5741 5747 5750 5753 5757 5759 5752 5759 5761 5763 5767 5771 5777 5785 5791 5795 5799 5802 5807 5809 5813 5815 5817 5820 5824 5828 5832 5835 5838 5841 5843 5845 5848 5850 5852 5854 5855 5856 5858 5860 5863 5866 5867 5867 5866 5866
5725 5726 5727 5727 5730 5736 5739 5741 5736 5740 5745 5747 5749 5755 5761 5766 5771 5779 5784 5788 5793 5798 5802 5807 5810 5813 5815 5819 5822 5827 5831 5833 5834 5838 5840 5843 5845 5848 5851 5851 5852 5853 5854 5857 5859 5862 5864 5864 5863
5707 5708 5708 5709 5711 5714 5722 5725 5714 5721 5730 5735 5738 5741 5748 5756 5762 5769 5776 5781 5785 5789 5795 5798 5803 5806 5810 5813 5817 5821 5823 5824 5828 5832 5836 5838 5840 5842 5843 5846 5847 5849 5850 5851 5852 5855 5858 5860 5861
5688 5688 5688 5689 5692 5692 5699 5703 5700 5703 5711 5719 5725 5730 5736 5743 5749 5756 5765 5772 5777 5783 5788 5793 5799 5798 5801 5804 5808 5814 5815 5818 5822 5826 5829 5831 5833 5836 5838 5839 5841 5843 5845 5847 5848 5848 5849 5852 5854
5675 5674 5673 5671 5671 5675 5675 5678 5680 5686 5691 5699 5708 5715 5723 5731 5735 5742 5749 5756 5767 5772 5778 5786 5790 5789 5793 5794 5792 5805 5810 5814 5818 5819 5820 5825 5826 5828 5832 5833 5835 5836 5838 5842 5842 5844 5845 5846 5846
5668 5665 5662 5660 5659 5658 5661 5654 5652 5664 5673 5681 5690 5698 5708 5716 5724 5728 5738 5744 5750 5756 5764 5773 5778 5780 5784 5787 5781 5793 5801 5807 5810 5812 5815 5817 5820 5820 5823 5826 5828 5830 5832 5834 5837 5838 5839 5840 5841
5657 5655 5652 5650 5647 5646 5648 5638 5635 5640 5654 5663 5672 5681 5692 5702 5709 5716 5724 5735 5742 5748 5754 5762 5764 5767 5771 5775 5782 5787 5793 5799 5802 5804 5808 5811 5814 5815 5817 5819 5821 5824 5825 5826 5828 5830 5832 5833 5834
5644 5643 5641 5638 5636 5634 5630 5624 5621 5627 5635 5647 5656 5665 5675 5687 5695 5703 5712 5722 5734 5740 5747 5753 5756 5758 5763 5770 5774 5781 5785 5788 5794 5798 5801 5804 5807 5810 5813 5814 5816 5818 5819 5820 5821 5821 5823 5824 5826
5635 5633 5631 5628 5625 5624 5620 5613 5617 5618 5623 5632 5642 5654 5662 5674 5682 5691 5700 5709 5722 5732 5737 5742 5748 5753 5758 5762 5768 5772 5777 5781 5783 5788 5792 5797 5800 5804 5806 5809 5811 5813 5814 5814 5815 5814 5815 5816 5816
5627 5626 5625 5621 5617 5616 5614 5612 5611 5611 5615 5622 5632 5643 5652 5663 5671 5679 5689 5697 5710 5722 5729 5734 5738 5744 5751 5754 5759 5763 5769 5774 5778 5780 5782 5787 5791 5794 5798 5801 5804 5805 5806 5807 5808 5808 5808 5807 5806
5622 5623 5621 5618 5615 5612 5609 5606 5605 5604 5608 5612 5624 5633 5643 5652 5663 5671 5678 5688 5698 5709 5719 5725 5730 5735 5742 5746 5751 5755 5760 5765 5769 5773 5777 5779 5780 5784 5789 5793 5796 5798 5799 5800 5801 5802 5802 5801 5798
5622 5620 5618 5615 5613 5609 5605 5602 5600 5597 5599 5604 5615 5622 5634 5645 5655 5664 5672 5680 5688 5697 5706 5714 5722 5727 5731 5735 5741 5747 5751 5756 5760 5765 5769 5772 5773 5776 5780 5785 5787 5790 5791 5792 5793 5794 5794 5795 5794
5622 5621 5618 5614 5611 5606 5602 5598 5592 5591 5594 5601 5608 5616 5623 5633 5645 5657 5666 5673 5681 5687 5695 5703 5713 5718 5722 5725 5730 5736 5741 5747 5751 5755 5759 5761 5766 5768 5771 5774 5777 5781 5783 5783 5784 5785 5786 5787 5787